{"data":{"norad_id":43797,"epoch":"2026-05-25T00:35:26.429280Z","epoch_age_seconds":83033,"freshness":"FRESH","line1":"1 43797U 18099AR  26145.02461145  .00015159  00000+0  29095-3 0  9996","line2":"2 43797  96.9279 169.2064 0002742 202.3350 157.7782 15.48056080418278","mean_motion":15.4805608,"eccentricity":0.0002742,"inclination_deg":96.9279,"raan_deg":169.2064,"arg_perigee_deg":202.335,"mean_anomaly_deg":157.7782,"bstar":0.00029095,"rev_number":41827,"period_min":93.019885946251,"perigee_km":420.54845094206,"apogee_km":424.27787265079,"semimajor_km":6800.5501617964,"source":"CELESTRAK","updated_at":"2026-05-25T13:38:13.297212Z"}}